Location: Newark
(55.7083°N, 13.1992°E)
Time: 22:08:25
(UTC+00:00)

ISS - Pass Details

Date: 26 January 2020
Orbit: 416 x 422 km, 51.6° (Epoch: 20 February)

Event Time Altitude Azimuth Distance (km) Brightness Sun altitude
Rises 17:23:54 0° 235° (SW) 2,374 1.3 -16.0°
Reaches altitude 10° 17:26:09 10° 224° (SW) 1,509 -0.1 -16.3°
Maximum altitude 17:29:09 30° 162° (SSE) 795 -2.5 -16.7°
Enters shadow 17:29:50 27° 138° (SE) 848 -2.5 -16.8°
